カタログに戻る

STARLINK-34420

運用中通信VLEO
NORAD 64483·PAYLOAD·🇺🇸 United States

打ち上げ Jun 23, 2025 から Cape Canaveral Space Force Station

Loading…

次のパス (今後24時間)

TLE

最新Source: CelesTrak SupGP

元期: Sep 15, 2026, 03:15 UTC

1 64483C 25133M   26258.13590278  .00040630  00000+0  12003-2 0  2585
2 64483  53.1572 314.5383 0001235  99.0248 344.3518 15.34374622    16

AllMySatでSTARLINK-34420をリアルタイム追跡

Download on the App Store